Location: Newark
(48.2308°N, 120.8549°W)
Time: 00:18:58
(UTC+00:00)

Transit 2A Rocket - Pass Details

Date: 25 May 2020
Orbit: 584 x 919 km, 66.7° (Epoch: 13 July)

Event Time Altitude Azimuth Distance (km) Brightness Sun altitude
Rises 08:00:21 0° 211° (SSW) 3,037 - -20.7°
Reaches altitude 10° 08:02:33 10° 211° (SSW) 2,174 - -20.7°
Exits shadow 08:05:49 43° 208° (SSW) 1,033 5.2 -20.7°
Maximum altitude 08:07:32 85° 124° (SE) 769 4.9 -20.7°
Drops below altitude 10° 08:13:05 10° 36° (NE) 2,416 8.4 -20.7°
Sets 08:15:40 0° 36° (NE) 3,403 9.3 -20.6°
